[[{"header":{"parameterUnit":"m.s-1","parameterCategory":1,"la1":30.2992,"la2":30.254,"lo1":-89.0895,"lo2":-89.0443,"dy":0.0025,"dx":0.0025,"nx":19,"ny":19,"refTime":"2026-04-20T09:00:00:Z","depth":0,"parameterNumber":2,"parameterNumberName":"U-component_of_WINDS"},"data":[0,0,0,-4.6711,-4.6715,-4.6892,-4.6892,-4.713,-4.7132,0,0,0,0,0,0,0,0,0,0,0,-4.6668,-4.667,-4.6711,-4.6715,-4.6892,-4.6892,-4.7129,-4.7132,0,0,0,0,0,0,0,0,0,0,0,-4.6667,-4.667,-4.6672,-4.6716,-4.6891,-4.6892,-4.7129,-4.6991,0,0,0,0,0,0,0,0,0,0,-4.6817,-4.6788,-4.6669,-4.6672,-4.6717,-4.6891,-4.6892,-4.6984,-4.7,-4.7056,0,-4.711,0,-4.7125,-4.7149,-4.715,0,0,0,-4.6708,-4.6775,-4.6814,-4.6673,-4.6719,-4.6891,-4.681,-4.6992,-4.701,-4.7076,-4.7113,-4.7122,-4.7129,-4.715,-4.7152,-4.7504,-4.7506,0,0,-4.6698,-4.6705,-4.6802,-4.6826,-4.6802,-4.6804,-4.6815,-4.7003,-4.7043,-4.7114,-4.7127,-4.7133,-4.7152,-4.7154,-4.7502,-4.7505,0,0,0,-4.6675,-4.6698,-4.6732,-4.6817,-4.6848,-4.681,-4.6822,-4.7035,-4.7045,-4.7129,-4.7136,-4.7154,-4.7157,-4.75,-4.7503,-4.7608,0,0,0,-4.6669,-4.6685,-4.6729,-4.6734,-4.6845,-4.6944,-4.685,-4.7032,-4.7053,-4.7135,-4.7154,-4.7159,-4.7498,-4.7502,-4.76,-4.7655,0,0,0,-4.6653,-4.6683,-4.6712,-4.6734,-4.6811,-4.6941,-4.6962,-4.7037,-4.7058,-4.715,-4.716,-4.7497,-4.7501,-4.7593,-4.7644,-4.7748,0,0,0,-4.6638,-4.6803,-4.6714,-4.69,-4.6809,-4.7005,-4.6961,-4.7106,-4.7198,-4.7155,-4.7498,-4.7503,-4.7591,-4.7637,-4.7741,-4.7835,-4.7875,0,0,-4.6849,-4.6828,-4.6937,-4.6863,-4.7076,-4.6978,-4.7206,-4.7283,-4.7285,-4.7431,-4.7439,-4.7602,-4.7643,-4.7746,-4.8106,-4.8138,0,0,0,-4.7006,-4.7084,-4.7139,-4.7228,-4.7292,-4.735,-4.7392,-4.742,-4.7543,-4.7362,-4.7669,-4.7693,-4.7753,-4.7798,-4.7825,-4.7875,-4.7525,-4.7524,-4.7524,-4.7312,-4.7307,-4.7486,-4.7502,-4.7588,-4.7629,-4.7698,-4.7743,-4.7712,-4.7785,-4.7827,-4.8046,-4.8098,-4.8119,-4.8171,-4.7879,-4.7879,-4.7879,-4.788,-4.7618,-4.7727,-4.7683,-4.784,-4.7832,-4.7964,-4.801,-4.7983,-4.8103,-4.8014,-4.8067,-4.7967,-4.8155,-4.82,-4.7887,-4.7886,-4.7885,-4.7884,-4.7884,-4.7816,-4.7867,-4.79,-4.8026,-4.8123,-4.8133,-4.825,-4.824,-4.8231,-4.8283,-4.8325,-4.8323,-4.8317,-4.8304,-4.8305,-4.8306,-4.8307,-4.8307,-4.8308,-4.8007,-4.8041,-4.8141,-4.8223,-4.8277,-4.8347,-4.839,-4.8443,-4.8498,-4.8481,-4.8481,-4.8441,-4.8176,-4.8107,-4.8319,-4.8317,-4.8316,-4.8315,-4.8314,-4.8315,-4.8244,-4.8398,-4.8453,-4.8546,-4.8642,-4.8628,-4.8736,-4.8778,-4.8836,-4.8786,-4.8591,-4.8568,-4.8547,-4.8489,-4.8788,-4.8788,-4.8788,-4.8788,-4.8479,-4.8468,-4.8622,-4.871,-4.8795,-4.8797,-4.897,-4.9005,-4.9029,-4.9054,-4.901,-4.8934,-4.8913,-4.8902,-4.8873,-4.8819,-4.9195,-4.9195,-4.9196,-4.8667,-4.8663,-4.8812,-4.8836,-4.8908,-4.8969,-4.913,-4.9231,-4.9244,-4.9212,-4.9073,-4.9055,-4.8934,-4.8895,-4.8857,-4.8812,-4.8713,0,0]},{"header":{"parameterUnit":"m.s-1","parameterCategory":1,"la1":30.2992,"la2":30.254,"lo1":-89.0895,"lo2":-89.0443,"dy":0.0025,"dx":0.0025,"nx":19,"ny":19,"refTime":"2026-04-20T09:00:00:Z","depth":0,"parameterNumber":3,"parameterNumberName":"V-component_of_WINDS"},"data":[0,0,0,2.65,2.65,2.6475,2.6475,2.6477,2.6477,0,0,0,0,0,0,0,0,0,0,0,2.6527,2.6527,2.65,2.65,2.6475,2.6475,2.6477,2.6477,0,0,0,0,0,0,0,0,0,0,0,2.6526,2.6527,2.6528,2.65,2.6475,2.6475,2.6477,2.6484,0,0,0,0,0,0,0,0,0,0,2.6502,2.6545,2.6527,2.6528,2.65,2.6475,2.6475,2.6483,2.6483,2.6502,0,2.6523,0,2.6501,2.6479,2.6479,0,0,0,2.6486,2.6546,2.6521,2.6528,2.65,2.6475,2.6482,2.6483,2.6483,2.6502,2.6523,2.6522,2.6501,2.648,2.648,2.6635,2.6637,0,0,2.6487,2.6533,2.6522,2.6522,2.6527,2.6483,2.6482,2.6482,2.6508,2.6523,2.6522,2.6501,2.648,2.648,2.6634,2.6636,0,0,0,2.6501,2.6535,2.6509,2.6523,2.6516,2.6483,2.6481,2.6508,2.6496,2.6521,2.6501,2.648,2.648,2.6632,2.6635,2.6747,0,0,0,2.6501,2.6542,2.6511,2.6539,2.6517,2.6512,2.6508,2.6496,2.6495,2.6501,2.648,2.6481,2.6631,2.6633,2.6741,2.6793,0,0,0,2.6522,2.6544,2.6547,2.6541,2.6532,2.6511,2.6498,2.6495,2.6483,2.6479,2.6481,2.663,2.6633,2.6735,2.6783,2.6846,0,0,0,2.6558,2.6648,2.655,2.6644,2.6533,2.6581,2.6497,2.6531,2.6542,2.648,2.6631,2.6634,2.6733,2.6777,2.6841,2.6908,2.694,0,0,2.6698,2.6667,2.6718,2.6629,2.6707,2.6581,2.6675,2.6641,2.66,2.6626,2.6629,2.6743,2.6782,2.6845,2.7107,2.7134,0,0,0,2.6778,2.6816,2.6826,2.6838,2.6815,2.6799,2.6747,2.6734,2.6754,2.6622,2.6782,2.6804,2.6839,2.6869,2.6891,2.6918,2.665,2.665,2.665,2.7041,2.6983,2.7064,2.7003,2.7017,2.6962,2.6967,2.6941,2.6879,2.6918,2.6925,2.7091,2.7128,2.7144,2.7173,2.6957,2.6957,2.6957,2.6958,2.724,2.7283,2.7199,2.7247,2.7186,2.7226,2.7179,2.7133,2.7162,2.7081,2.7109,2.7024,2.7175,2.7197,2.6966,2.6964,2.6963,2.6962,2.6962,2.7404,2.7415,2.7399,2.7411,2.7427,2.7363,2.7395,2.7339,2.7285,2.7313,2.7314,2.7312,2.7303,2.7318,2.7319,2.7319,2.732,2.732,2.7321,2.7581,2.7559,2.7592,2.7577,2.7577,2.7571,2.7519,2.7519,2.7504,2.746,2.7459,2.7394,2.72,2.7152,2.7329,2.7328,2.7327,2.7326,2.7325,2.7802,2.7743,2.7795,2.7796,2.7773,2.7794,2.7721,2.7726,2.7717,2.7735,2.7664,2.7531,2.7495,2.7477,2.7437,2.7676,2.7676,2.7676,2.7676,2.794,2.7917,2.7957,2.7962,2.7961,2.7902,2.7964,2.7925,2.7876,2.7867,2.7825,2.7767,2.7752,2.7725,2.7702,2.7663,2.7955,2.7955,2.7956,2.8072,2.8047,2.8109,2.806,2.8038,2.8022,2.8078,2.8089,2.8021,2.7966,2.7859,2.7848,2.7754,2.7727,2.7668,2.7632,2.7561,0,0]}]]